Le nostre stazioni meteo in Italia

Pubblicità
Il mio iltempo24.it
Marina Di Ginosa, Italia (16325): Temperatura & dewpoint: 21.05.2018 03:00:00 - 27.05.2018 03:00:00 (CEST)Marina Di Ginosa, Italia (16325): velocità del vento: 21.05.2018 03:00:00 - 27.05.2018 03:00:00 (CEST)Marina Di Ginosa, Italia (16325): direzione del vento: 21.05.2018 03:00:00 - 27.05.2018 03:00:00 (CEST)Marina Di Ginosa, Italia (16325): reduced air pressure: 21.05.2018 03:00:00 - 27.05.2018 03:00:00 (CEST)Marina Di Ginosa, Italia (16325): visibility: 21.05.2018 03:00:00 - 27.05.2018 03:00:00 (CEST)
Data & Tempo tt [°C] td [°C] ff [km/h] ff [kn] dd ppp [hPa] vv [km]
27.05.2018 03:00:00 18,0 15,0 13 7 ONO - 10
27.05.2018 02:00:00 19,2 15,9 13 7 ONO 1017,7 20
27.05.2018 01:00:00 20,0 16,0 9 5 NNO - 10
27.05.2018 00:00:00 21,0 16,0 11 6 NNO - 10
26.05.2018 23:00:00 22,0 17,2 9 5 N 1017,6 20
26.05.2018 22:00:00 23,0 17,0 11 6 N - 10
26.05.2018 21:00:00 24,0 15,0 13 7 N - 10
26.05.2018 20:00:00 24,6 20,1 4 2 E 1015,4 20
26.05.2018 19:00:00 27,0 19,0 5 3 SE - 10
26.05.2018 18:00:00 28,0 19,0 8 4 S - 10
26.05.2018 17:00:00 30,2 17,0 8 4 ONO 1015,3 25
26.05.2018 16:00:00 31,0 18,0 9 5 SE - 10
26.05.2018 15:00:00 32,0 15,0 8 4 SE - 10
26.05.2018 14:00:00 32,0 13,7 9 5 NE 1016,2 25
26.05.2018 13:00:00 31,0 13,0 11 6 NO - 10
26.05.2018 12:00:00 30,0 14,0 11 6 NNE - 10
26.05.2018 11:00:00 29,0 14,4 13 7 N 1016,2 20
26.05.2018 10:00:00 28,0 15,0 11 6 N - 10
26.05.2018 09:00:00 25,0 15,0 13 7 NO - 10
26.05.2018 08:00:00 22,0 15,8 13 7 ONO 1015,7 18
26.05.2018 07:00:00 19,0 15,0 13 7 ONO - 10
26.05.2018 06:00:00 17,0 15,0 13 7 ONO - 10
26.05.2018 05:00:00 17,4 15,4 13 7 ONO 1015,0 18
26.05.2018 04:00:00 18,0 16,0 11 6 ONO - 10
26.05.2018 03:00:00 18,0 16,0 11 6 ONO - 10
26.05.2018 02:00:00 18,2 15,1 9 5 ONO 1015,4 18
26.05.2018 01:00:00 19,0 16,0 4 2 ONO - 10
26.05.2018 00:00:00 20,0 16,0 4 2 E - 10
25.05.2018 23:00:00 20,4 16,8 4 2 ENE 1015,1 18
25.05.2018 22:00:00 23,0 17,0 4 2 NNE - 10
25.05.2018 21:00:00 25,0 17,0 8 4 N - 10
25.05.2018 20:00:00 24,8 17,8 9 5 NNE 1012,7 20
25.05.2018 19:00:00 26,0 18,0 8 4 S - 10
25.05.2018 18:00:00 28,0 19,0 8 4 S - 10
25.05.2018 17:00:00 27,8 18,5 13 7 SSO 1012,3 20
25.05.2018 16:00:00 28,0 20,0 15 8 SSO - 10
25.05.2018 15:00:00 28,0 18,0 15 8 S - 10
25.05.2018 14:00:00 28,6 17,8 13 7 S 1012,8 20
25.05.2018 13:00:00 29,0 18,0 13 7 S - 10
25.05.2018 12:00:00 29,0 13,0 9 5 NNE - 10
25.05.2018 11:00:00 28,0 13,5 11 6 N 1013,3 20
25.05.2018 10:00:00 26,0 14,0 11 6 N - 10
25.05.2018 09:00:00 25,0 15,0 9 5 NO - 10
25.05.2018 08:00:00 21,0 15,5 11 6 ONO 1013,8 20
25.05.2018 07:00:00 18,0 15,0 13 7 ONO - 10
25.05.2018 06:00:00 16,0 14,0 13 7 NO - 10
25.05.2018 05:00:00 16,0 14,7 13 7 NO 1013,2 20
25.05.2018 04:00:00 16,0 14,0 8 4 ONO - 10
25.05.2018 03:00:00 17,0 15,0 11 6 ONO - 10
25.05.2018 02:00:00 16,8 15,2 9 5 ONO 1014,5 20
25.05.2018 01:00:00 17,0 15,0 9 5 NO - 10
25.05.2018 00:00:00 17,0 15,0 5 3 NNO - 10
24.05.2018 23:00:00 18,0 15,6 4 2 N 1014,5 20
24.05.2018 22:00:00 21,0 17,0 4 2 NNO - 10
24.05.2018 21:00:00 21,0 18,0 5 3 NE - 10
24.05.2018 20:00:00 22,4 17,5 5 3 ESE 1013,4 15
24.05.2018 19:00:00 24,0 18,0 8 4 SSO - 10
24.05.2018 18:00:00 24,0 19,0 11 6 SSO - 10
24.05.2018 17:00:00 25,0 19,2 13 7 O 1014,0 10
24.05.2018 16:00:00 25,0 19,0 9 5 S - 10
24.05.2018 15:00:00 25,0 20,0 11 6 S - 10
24.05.2018 14:00:00 23,2 19,0 8 4 SO 1015,3 12
24.05.2018 13:00:00 24,0 18,0 13 7 S - 10
24.05.2018 12:00:00 22,0 18,0 5 3 N - 10
24.05.2018 11:00:00 21,8 17,8 5 3 NNO 1015,3 4,0
24.05.2018 10:00:00 20,0 18,0 5 3 OSO - 6
24.05.2018 09:00:00 18,0 17,0 9 5 ONO - 3,0
24.05.2018 08:00:00 18,2 16,9 11 6 NNO 1015,0 3,0
24.05.2018 07:00:00 18,0 16,0 5 3 O - 10
24.05.2018 06:00:00 17,0 15,0 9 5 O - 10
24.05.2018 05:00:00 17,4 15,6 8 4 O 1013,9 20
24.05.2018 04:00:00 - - - - - - -
24.05.2018 03:00:00 18,0 16,0 5 3 O - 10
24.05.2018 02:00:00 18,2 16,4 5 3 ONO 1014,0 20
24.05.2018 01:00:00 19,0 17,0 5 3 ONO - 10
24.05.2018 00:00:00 19,0 17,0 4 2 ONO - 10
23.05.2018 23:00:00 18,8 17,1 4 2 O 1014,4 20
23.05.2018 22:00:00 19,0 17,0 4 2 OSO - 10
23.05.2018 21:00:00 19,0 17,0 5 3 NO - 10
23.05.2018 20:00:00 20,0 16,4 2 1 ENE 1013,6 20
23.05.2018 19:00:00 20,0 18,0 5 3 N - 10
23.05.2018 18:00:00 21,0 17,0 4 2 ENE - 10
23.05.2018 17:00:00 21,0 16,4 11 6 NE 1012,8 20
23.05.2018 16:00:00 22,0 16,0 5 3 SSE - 10
23.05.2018 15:00:00 23,0 16,0 11 6 ESE - 10
23.05.2018 14:00:00 21,2 15,7 9 5 E 1012,8 20
23.05.2018 13:00:00 21,0 16,0 4 2 NNO - 10
23.05.2018 12:00:00 18,0 15,0 13 7 NNO - 10
23.05.2018 11:00:00 18,2 16,4 11 6 NO 1013,4 20
23.05.2018 10:00:00 18,0 16,0 13 7 NO - 10
23.05.2018 09:00:00 21,0 18,0 21 11 OSO - 10
23.05.2018 08:00:00 21,0 18,4 5 3 NNE 1012,6 10
23.05.2018 07:00:00 20,0 18,0 11 6 N - 10
23.05.2018 06:00:00 20,0 18,0 5 3 ONO - 10
23.05.2018 05:00:00 20,0 18,1 9 5 NE 1012,5 10
23.05.2018 04:00:00 21,0 19,0 5 3 SO - 10
23.05.2018 03:00:00 21,0 19,0 5 3 ESE - 10
23.05.2018 02:00:00 20,8 18,9 8 4 E 1014,2 10
23.05.2018 01:00:00 19,0 17,0 5 3 NE - 10
23.05.2018 00:00:00 20,0 18,0 0 0 N - 10
22.05.2018 23:00:00 20,0 18,1 5 3 NE 1014,2 10
22.05.2018 22:00:00 20,0 18,0 5 3 NNE - 10
22.05.2018 21:00:00 22,0 19,0 4 2 ENE - 10
22.05.2018 20:00:00 22,4 19,6 8 4 ENE 1013,6 10
22.05.2018 19:00:00 23,0 19,0 4 2 E - 10
22.05.2018 18:00:00 25,0 19,0 8 4 SSE - 10
22.05.2018 17:00:00 25,0 18,9 8 4 SSE 1013,8 10
22.05.2018 16:00:00 25,0 18,0 4 2 S - 10
22.05.2018 15:00:00 26,0 20,0 8 4 SO - 10
22.05.2018 14:00:00 25,2 19,4 9 5 SSE 1014,2 15
22.05.2018 13:00:00 27,0 19,0 13 7 SSE - 10
22.05.2018 12:00:00 26,0 19,0 15 8 SSE - 10
22.05.2018 11:00:00 26,2 19,6 13 7 SE 1014,6 10
22.05.2018 10:00:00 25,0 19,0 11 6 SE - 10
22.05.2018 09:00:00 25,0 18,0 4 2 S - 10
22.05.2018 08:00:00 21,8 17,4 8 4 NO 1013,8 20
22.05.2018 07:00:00 19,0 17,0 8 4 NO - 10
22.05.2018 06:00:00 18,0 16,0 8 4 ONO - 10
22.05.2018 05:00:00 18,6 16,8 8 4 NO 1013,1 20
22.05.2018 04:00:00 19,0 17,0 9 5 NO - 10
22.05.2018 03:00:00 19,0 17,0 8 4 ONO - 10
22.05.2018 02:00:00 19,0 16,6 5 3 ONO 1012,8 20
22.05.2018 01:00:00 20,0 17,0 8 4 OSO - 10
22.05.2018 00:00:00 20,0 18,0 11 6 NO - 10
21.05.2018 23:00:00 20,6 18,0 9 5 NO 1012,3 20
21.05.2018 22:00:00 21,0 17,0 9 5 NO - 10
21.05.2018 21:00:00 22,0 17,0 5 3 ONO - 10
21.05.2018 20:00:00 24,0 15,8 5 3 NNO 1011,4 20
21.05.2018 19:00:00 25,0 16,0 11 6 O - 10
21.05.2018 18:00:00 24,0 17,0 15 8 SO - 10
21.05.2018 17:00:00 23,8 15,6 8 4 SO 1011,6 20
21.05.2018 16:00:00 24,0 18,0 11 6 SO - 10
21.05.2018 15:00:00 27,0 18,0 16 9 SSO - 10
21.05.2018 14:00:00 28,0 18,1 16 9 S 1012,3 20
21.05.2018 13:00:00 28,0 19,0 15 8 S - 10
21.05.2018 12:00:00 27,0 18,0 15 8 S - 10
21.05.2018 11:00:00 26,0 16,0 9 5 SSE 1012,3 20
21.05.2018 10:00:00 25,0 15,0 8 4 ESE - 10
21.05.2018 09:00:00 21,0 15,0 8 4 ONO - 10
21.05.2018 08:00:00 19,4 14,9 13 7 ONO 1012,4 20
21.05.2018 07:00:00 22,0 20,0 11 6 O - 10
21.05.2018 06:00:00 16,0 14,0 11 6 NO - 10
21.05.2018 05:00:00 16,0 14,4 11 6 NO 1012,5 25
21.05.2018 04:00:00 - - - - - - -
21.05.2018 03:00:00 - - - - - - -

tt = Temperatura
td = dewpoint
ff = velocità del vento
dd = direzione del vento
ppp = reduced air pressure
vv = visibility

Stazioni seguenti

WeatherPro
AMSI
MeteoEarth